N0LTM Weather Reports


time (UTC)temp
F
wind
direction
speed
knots
gust
knots
rain 1hr
in
rain 24hr
in
rain mn
in
humidity
%
barometer
mb
20260906113552 67 0 0.0 2.6 0.00 0.00 0.00 98 1019.2
20260906113100 67 0 0.0 4.3 0.00 0.00 0.00 98 1019.2
20260906112552 67 352 0.0 4.3 0.00 0.00 0.00 98 1019.2
20260906112052 67 10 0.9 4.3 0.00 0.00 0.00 98 1019.2
20260906111607 67 5 0.0 4.3 0.00 0.00 0.00 98 1019.0
20260906111056 67 32 0.0 3.5 0.00 0.00 0.00 98 1019.1
20260906110556 67 22 0.9 3.5 0.00 0.00 0.00 98 1019.0
20260906105552 67 338 0.0 3.5 0.00 0.00 0.00 98 1018.9
20260906105056 67 0 0.0 3.5 0.00 0.00 0.00 98 1019.0
20260906104600 67 0 0.0 3.5 0.00 0.00 0.00 98 1019.0
20260906104053 67 355 0.0 3.5 0.00 0.00 0.00 98 1019.0
20260906103552 67 13 0.0 2.6 0.00 0.00 0.00 98 1018.9
20260906103103 67 0 0.0 3.5 0.00 0.00 0.00 98 1018.8
20260906102553 67 0 0.9 3.5 0.00 0.00 0.00 98 1018.9
20260906102052 67 337 0.0 3.5 0.00 0.00 0.00 98 1018.7
20260906101600 67 0 0.0 3.5 0.00 0.00 0.00 98 1018.6
20260906101052 67 0 0.0 2.6 0.00 0.00 0.00 98 1018.6
20260906100556 67 0 0.0 2.6 0.00 0.00 0.00 98 1018.6
20260906100103 67 323 0.0 3.5 0.00 0.00 0.00 98 1018.6
20260906095553 67 323 0.0 3.5 0.00 0.00 0.00 98 1018.6
20260906095053 66 321 0.0 3.5 0.00 0.00 0.00 98 1018.7
20260906094602 66 323 0.0 3.5 0.00 0.00 0.00 98 1018.6
20260906094054 66 330 0.0 2.6 0.00 0.00 0.00 97 1018.6
20260906093554 66 0 0.0 2.6 0.00 0.00 0.00 97 1018.6
20260906093105 66 0 0.0 0.0 0.00 0.00 0.00 97 1018.6
20260906092556 65 0 0.0 0.0 0.00 0.00 0.00 97 1018.4
20260906092054 65 0 0.0 0.0 0.00 0.00 0.00 97 1018.4
20260906091601 65 0 0.0 0.0 0.00 0.00 0.00 97 1018.4
20260906091053 65 0 0.0 0.0 0.00 0.00 0.00 97 1018.5
20260906090553 65 0 0.0 0.9 0.00 0.00 0.00 97 1018.5
20260906085554 65 0 0.0 1.7 0.00 0.00 0.00 96 1018.5
20260906085052 65 0 0.0 1.7 0.00 0.00 0.00 96 1018.5
20260906084601 65 0 0.0 0.9 0.00 0.00 0.00 96 1018.4
20260906084053 65 0 0.0 0.9 0.00 0.00 0.00 95 1018.4
20260906083555 65 0 0.0 1.7 0.00 0.00 0.00 96 1018.4
20260906083103 65 0 0.0 1.7 0.00 0.00 0.00 95 1018.5
20260906082552 65 0 0.0 1.7 0.00 0.00 0.00 95 1018.5
20260906082056 66 0 0.0 1.7 0.00 0.00 0.00 95 1018.5
20260906081602 65 0 0.0 1.7 0.00 0.00 0.00 95 1018.6
20260906081052 65 0 0.0 0.0 0.00 0.00 0.00 95 1018.6
20260906080555 65 0 0.0 0.0 0.00 0.00 0.00 94 1018.5
20260906080103 66 0 0.0 0.0 0.00 0.00 0.00 94 1018.5
20260906075557 66 0 0.0 0.0 0.00 0.00 0.00 94 1018.5
20260906075055 66 0 0.0 0.0 0.00 0.00 0.00 94 1018.4
20260906074602 66 0 0.0 0.0 0.00 0.00 0.00 94 1018.4
20260906074054 66 0 0.0 0.9 0.00 0.00 0.00 94 1018.5
20260906073555 66 0 0.0 0.9 0.00 0.00 0.00 94 1018.5
20260906073103 67 0 0.0 0.9 0.00 0.00 0.00 94 1018.5
20260906072618 67 0 0.0 0.9 0.00 0.00 0.00 94 1018.4
20260906072057 67 0 0.0 0.9 0.00 0.00 0.00 94 1018.5
20260906071603 67 0 0.0 0.9 0.00 0.00 0.00 94 1018.4
20260906071055 67 0 0.0 0.9 0.00 0.00 0.00 93 1018.4
20260906070556 68 0 0.0 0.9 0.00 0.00 0.00 93 1018.4
20260906070059 68 0 0.0 0.9 0.00 0.00 0.00 93 1018.4
20260906065555 68 0 0.0 1.7 0.00 0.00 0.00 93 1018.4
20260906065055 68 0 0.0 2.6 0.00 0.00 0.00 93 1018.5
20260906064600 68 329 0.0 3.5 0.00 0.00 0.00 93 1018.5
20260906064056 68 329 0.0 3.5 0.00 0.00 0.00 93 1018.6
20260906063555 68 340 0.0 2.6 0.00 0.00 0.00 93 1018.7
20260906063102 69 351 0.0 2.6 0.00 0.00 0.00 93 1018.6
20260906062555 69 0 0.0 3.5 0.00 0.00 0.00 93 1018.6
20260906062055 69 0 0.9 3.5 0.00 0.00 0.00 93 1018.7
20260906061604 69 5 0.0 3.5 0.00 0.00 0.00 92 1018.7
20260906061055 69 324 0.9 4.3 0.00 0.00 0.00 93 1018.6
20260906060555 69 330 0.0 4.3 0.00 0.00 0.00 93 1018.7
20260906060100 69 331 0.0 3.5 0.00 0.00 0.00 93 1018.6
20260906055555 69 0 0.0 3.5 0.00 0.00 0.00 93 1018.7
20260906055056 69 319 0.9 3.5 0.00 0.00 0.00 93 1018.7
20260906054637 69 25 0.9 3.5 0.00 0.00 0.00 93 1018.7
20260906054055 69 0 0.0 7.0 0.00 0.00 0.00 93 1018.7
20260906053553 69 0 0.0 7.0 0.00 0.00 0.00 93 1018.7
20260906053059 69 351 0.9 4.3 0.00 0.00 0.00 93 1018.7
20260906052555 69 326 0.9 5.2 0.00 0.00 0.00 93 1018.6
20260906052055 69 0 0.9 6.1 0.00 0.00 0.00 92 1018.5
20260906051603 69 342 0.0 6.1 0.00 0.00 0.00 92 1018.5
20260906051055 69 47 0.9 3.5 0.00 0.00 0.00 92 1018.5
20260906050556 69 48 0.9 4.3 0.00 0.00 0.00 92 1018.5
20260906050108 69 18 0.9 4.3 0.00 0.00 0.00 92 1018.6
20260906045553 69 328 0.0 6.1 0.00 0.00 0.00 92 1018.5
20260906045052 69 0 0.9 6.1 0.00 0.00 0.00 91 1018.4
20260906044601 69 9 0.0 3.5 0.00 0.00 0.00 91 1018.4
20260906044055 69 0 0.9 3.5 0.00 0.00 0.00 91 1018.4
20260906043556 69 349 0.0 3.5 0.00 0.00 0.00 91 1018.4
20260906043106 69 333 0.9 3.5 0.00 0.00 0.00 91 1018.2
20260906042552 69 350 0.0 3.5 0.00 0.00 0.00 91 1018.2
20260906042053 69 347 0.9 3.5 0.00 0.00 0.00 91 1018.3
20260906041603 69 0 0.9 3.5 0.00 0.00 0.00 91 1018.2
20260906041053 69 0 0.0 2.6 0.00 0.00 0.00 91 1018.1
20260906040552 69 36 0.0 4.3 0.00 0.00 0.00 91 1018.1
20260906040116 69 36 0.0 4.3 0.00 0.00 0.00 90 1017.9
20260906035555 69 0 0.0 4.3 0.00 0.00 0.00 90 1017.9
20260906035053 69 0 0.0 4.3 0.00 0.00 0.00 90 1017.9
20260906034600 69 347 0.9 6.1 0.00 0.00 0.00 90 1017.8
20260906034052 69 0 0.9 6.1 0.00 0.00 0.00 90 1017.7
20260906033553 70 11 0.9 6.1 0.00 0.00 0.00 89 1017.6
20260906033131 70 346 0.9 6.1 0.00 0.00 0.00 89 1017.5
20260906032552 70 9 0.9 7.8 0.00 0.00 0.00 89 1017.4
20260906032056 70 355 1.7 7.8 0.00 0.00 0.00 89 1017.4
20260906031615 70 11 0.9 4.3 0.00 0.00 0.00 89 1017.4
20260906031053 70 0 0.9 6.1 0.00 0.00 0.00 88 1017.4
20260906030556 70 51 0.9 6.1 0.00 0.00 0.00 88 1017.4
20260906025555 70 0 0.9 4.3 0.00 0.03 0.00 87 1017.4
20260906025052 70 0 0.9 4.3 0.00 0.03 0.00 86 1017.4
20260906024606 70 35 0.0 4.3 0.00 0.03 0.00 86 1017.5
20260906024056 71 0 0.0 3.5 0.00 0.03 0.00 86 1017.4
20260906023553 71 0 0.0 7.8 0.00 0.03 0.00 86 1017.3
20260906023104 71 344 0.9 7.8 0.00 0.03 0.00 86 1017.2
20260906022552 71 355 1.7 7.8 0.00 0.03 0.00 86 1017.2
20260906022055 71 5 1.7 7.8 0.00 0.03 0.00 86 1017.3
20260906021612 71 78 1.7 6.1 0.00 0.03 0.00 86 1017.3
20260906021052 71 101 0.9 7.0 0.00 0.03 0.00 86 1017.4
20260906020552 71 0 0.0 8.7 0.00 0.03 0.00 86 1017.3
20260906020058 71 0 0.9 8.7 0.00 0.03 0.00 86 1017.3
20260906015552 71 22 1.7 8.7 0.00 0.03 0.00 86 1017.2
20260906015056 71 43 0.9 5.2 0.00 0.03 0.00 86 1017.2
20260906014603 71 336 0.9 5.2 0.00 0.03 0.00 86 1017.3
20260906014055 71 57 0.9 8.7 0.00 0.03 0.00 86 1017.3
20260906013557 72 5 1.7 8.7 0.00 0.03 0.00 85 1017.4
20260906013107 72 52 1.7 7.0 0.00 0.03 0.00 85 1017.4
20260906012552 72 29 0.9 5.2 0.00 0.03 0.00 85 1017.4
20260906012053 72 11 0.9 6.1 0.00 0.03 0.00 85 1017.3
20260906011605 72 0 0.9 7.0 0.00 0.03 0.00 85 1017.3
20260906011056 72 41 1.7 9.6 0.00 0.03 0.00 84 1017.3
20260906010556 72 44 1.7 9.6 0.00 0.03 0.00 84 1017.3
20260906010106 72 9 0.9 7.0 0.00 0.03 0.00 84 1017.2
20260906005557 72 10 1.7 7.0 0.00 0.03 0.00 84 1017.1
20260906005056 72 303 1.7 8.7 0.00 0.03 0.00 84 1017.1
20260906004605 72 24 1.7 8.7 0.00 0.03 0.00 83 1017.2
20260906004052 72 340 1.7 7.8 0.00 0.03 0.00 83 1017.1
20260906003552 72 0 1.7 7.8 0.00 0.03 0.00 83 1017.2
20260906003105 73 36 1.7 7.8 0.00 0.03 0.00 82 1017.1
20260906002552 73 39 1.7 7.8 0.00 0.03 0.00 82 1017.2
20260906002056 73 17 2.6 7.8 0.00 0.03 0.00 82 1017.1
20260906001604 73 302 1.7 8.7 0.00 0.03 0.00 82 1017.1
20260906001052 73 17 1.7 10.4 0.00 0.03 0.00 81 1017.1
20260906000556 74 68 1.7 12.2 0.00 0.03 0.00 81 1016.9
20260906000106 74 318 2.6 12.2 0.00 0.03 0.00 80 1016.8
20260905235553 74 22 1.7 9.6 0.00 0.03 0.00 79 1016.6
20260905235053 75 86 1.7 9.6 0.00 0.03 0.00 78 1016.6
20260905234608 75 39 1.7 8.7 0.00 0.03 0.00 77 1016.6
20260905234054 76 46 1.7 8.7 0.00 0.03 0.00 77 1016.5
20260905233556 76 44 3.5 8.7 0.00 0.03 0.00 76 1016.4
20260905233103 76 29 0.9 8.7 0.00 0.03 0.00 76 1016.5
20260905232552 77 56 2.6 11.3 0.00 0.03 0.00 75 1016.4
20260905232055 77 32 3.5 11.3 0.00 0.03 0.00 74 1016.4
20260905231604 77 12 3.5 10.4 0.00 0.03 0.00 74 1016.4
20260905231055 78 49 0.9 8.7 0.00 0.03 0.00 75 1016.3
20260905230557 78 10 1.7 9.6 0.00 0.03 0.00 74 1016.4
20260905230100 78 52 0.9 11.3 0.00 0.03 0.00 74 1016.2
20260905225555 79 0 0.9 11.3 0.00 0.03 0.00 73 1016.1
20260905225056 79 355 1.7 12.2 0.00 0.03 0.00 73 1016.0
20260905224613 79 32 2.6 12.2 0.00 0.03 0.00 72 1015.9
20260905224056 79 13 2.6 12.2 0.00 0.03 0.00 71 1016.0
20260905223555 80 162 1.7 8.7 0.00 0.03 0.00 71 1015.9
20260905223101 81 15 0.9 8.7 0.00 0.03 0.00 71 1016.0
20260905222557 81 5 2.6 7.8 0.00 0.03 0.00 70 1015.9
20260905222052 81 355 2.6 7.8 0.00 0.03 0.00 70 1015.9
20260905221604 81 328 1.7 8.7 0.00 0.03 0.00 69 1015.9
20260905221053 81 342 1.7 9.6 0.00 0.03 0.00 67 1015.8
20260905220553 82 331 1.7 9.6 0.00 0.03 0.00 66 1015.8
20260905220105 82 336 3.5 9.6 0.00 0.03 0.00 66 1015.7
20260905215553 82 322 1.7 7.0 0.00 0.03 0.00 67 1015.8
20260905215052 81 0 1.7 6.1 0.00 0.03 0.00 67 1015.9
20260905214604 81 32 0.9 7.8 0.00 0.03 0.00 67 1015.8
20260905214054 82 340 1.7 7.8 0.00 0.03 0.00 66 1015.9
20260905213555 82 338 1.7 5.2 0.00 0.03 0.00 65 1015.8
20260905213103 83 344 1.7 5.2 0.00 0.03 0.00 63 1015.7
20260905212556 83 44 0.0 5.2 0.00 0.03 0.00 63 1015.8
20260905212055 83 326 1.7 6.1 0.00 0.03 0.00 63 1015.8
20260905211611 84 0 2.6 7.0 0.00 0.03 0.00 62 1015.8
20260905211056 84 328 1.7 7.0 0.00 0.03 0.00 63 1015.7
20260905210552 84 81 0.9 3.5 0.00 0.03 0.00 65 1015.8
20260905210105 84 0 0.9 8.7 0.00 0.03 0.00 64 1015.8
20260905205552 84 0 2.6 8.7 0.00 0.03 0.00 64 1015.8
20260905205055 83 347 0.9 7.8 0.00 0.03 0.00 65 1015.7
20260905204608 83 350 2.6 7.8 0.00 0.03 0.00 64 1015.9
20260905204059 83 344 2.6 7.8 0.00 0.03 0.00 67 1015.8
20260905203556 83 71 0.9 4.3 0.00 0.03 0.00 71 1015.9
20260905203119 82 59 0.9 4.3 0.00 0.03 0.00 69 1016.0
20260905202556 82 355 1.7 4.3 0.00 0.03 0.00 69 1016.1
20260905202056 82 15 0.9 4.3 0.00 0.03 0.00 69 1016.0
20260905201610 82 51 0.9 5.2 0.00 0.03 0.00 71 1016.0
20260905201055 81 60 0.0 5.2 0.00 0.03 0.00 73 1016.0
20260905200552 80 9 0.9 5.2 0.00 0.03 0.00 74 1015.9
20260905200118 79 49 0.9 5.2 0.00 0.03 0.00 76 1016.1
20260905195556 79 333 0.9 7.0 0.00 0.03 0.00 77 1016.1
20260905195053 79 344 0.9 7.0 0.00 0.03 0.00 77 1016.0
20260905194608 79 336 0.9 4.3 0.00 0.03 0.00 77 1016.2
20260905194056 79 59 0.9 3.5 0.00 0.03 0.00 79 1016.3
20260905193552 78 0 0.0 5.2 0.00 0.03 0.00 79 1016.3
20260905193101 78 0 0.9 5.2 0.00 0.03 0.00 77 1016.4
20260905192553 79 355 2.6 5.2 0.00 0.03 0.00 77 1016.4
20260905192055 79 333 1.7 6.1 0.00 0.03 0.00 77 1016.4
20260905191602 79 355 1.7 7.0 0.00 0.03 0.00 77 1016.4
20260905191054 78 332 0.9 7.0 0.00 0.03 0.00 79 1016.4
20260905190552 78 322 2.6 7.0 0.00 0.03 0.00 80 1016.4
20260905190101 77 0 0.9 7.0 0.00 0.03 0.00 81 1016.4
20260905185556 77 0 0.9 7.0 0.00 0.03 0.00 82 1016.5
20260905185056 77 327 1.7 5.2 0.00 0.03 0.00 82 1016.6
20260905184559 77 59 1.7 4.3 0.00 0.03 0.00 82 1016.6
20260905184056 77 319 0.9 7.0 0.00 0.03 0.00 83 1016.7
20260905183556 77 334 1.7 7.0 0.00 0.03 0.00 83 1016.7
20260905183102 77 9 1.7 7.0 0.00 0.03 0.00 83 1016.6
20260905182552 77 360 0.9 3.5 0.00 0.03 0.00 83 1016.7
20260905182053 77 351 0.0 7.0 0.00 0.03 0.00 83 1016.7
20260905181606 77 0 0.9 7.0 0.00 0.03 0.00 83 1016.8
20260905181052 77 336 1.7 7.0 0.00 0.03 0.00 83 1016.8
20260905180553 77 323 0.9 5.2 0.00 0.03 0.00 83 1016.8
20260905180105 77 11 0.9 4.3 0.00 0.03 0.00 83 1016.6
20260905175559 77 0 0.9 4.3 0.00 0.03 0.00 82 1016.6
20260905175056 77 160 0.9 7.0 0.00 0.03 0.00 82 1016.6
20260905174607 77 0 0.9 7.0 0.00 0.03 0.00 82 1016.6
20260905174059 77 46 0.9 7.0 0.00 0.03 0.00 82 1016.6
20260905173556 77 346 1.7 7.0 0.00 0.03 0.00 81 1016.6
20260905173106 78 355 1.7 8.7 0.00 0.03 0.00 80 1016.5
20260905172556 78 17 1.7 8.7 0.00 0.03 0.00 80 1016.6
20260905172056 78 19 1.7 8.7 0.00 0.03 0.00 80 1016.5
20260905171601 78 350 0.9 7.8 0.00 0.03 0.00 80 1016.6
20260905171055 78 333 1.7 7.8 0.00 0.03 0.00 79 1016.5
20260905170552 79 302 1.7 5.2 0.00 0.03 0.00 79 1016.6
20260905170112 79 59 0.9 7.0 0.00 0.03 0.00 79 1016.6
20260905165556 79 17 0.9 7.0 0.00 0.03 0.00 79 1016.6
20260905165057 79 323 1.7 7.0 0.00 0.03 0.00 79 1016.5
20260905164605 79 352 1.7 6.1 0.00 0.03 0.00 78 1016.6
20260905164055 80 348 0.9 5.2 0.00 0.03 0.00 78 1016.6
20260905163555 80 84 0.9 7.8 0.00 0.03 0.00 78 1016.6
20260905163100 80 5 1.7 7.8 0.00 0.03 0.00 78 1016.6
20260905162556 80 341 0.9 7.8 0.00 0.03 0.00 78 1016.6
20260905162057 80 344 0.9 7.8 0.00 0.03 0.00 78 1016.6
20260905161600 80 15 1.7 5.2 0.00 0.03 0.00 79 1016.4
20260905161056 80 27 1.7 4.3 0.00 0.03 0.00 81 1016.4
20260905160556 79 30 0.9 4.3 0.00 0.03 0.00 79 1016.5
20260905160107 79 24 1.7 5.2 0.00 0.03 0.00 80 1016.5
20260905155621 79 9 1.7 6.1 0.00 0.03 0.00 82 1016.5
20260905155055 79 325 1.7 6.1 0.00 0.03 0.00 84 1016.5
20260905154613 79 26 1.7 6.1 0.00 0.03 0.00 86 1016.6
20260905154053 78 100 1.7 6.1 0.00 0.03 0.00 90 1016.4
20260905153553 77 165 1.7 5.2 0.00 0.03 0.00 91 1016.3
20260905153058 77 0 0.9 3.5 0.00 0.03 0.00 93 1016.3
20260905152556 76 306 0.0 7.0 0.00 0.03 0.00 94 1016.2
20260905152056 76 0 0.9 7.0 0.00 0.03 0.00 94 1016.2
20260905151606 76 360 0.9 7.0 0.00 0.03 0.00 95 1016.2
20260905151055 75 351 0.9 7.0 0.00 0.03 0.00 95 1016.2
20260905150558 75 327 1.7 7.0 0.00 0.03 0.00 96 1016.1
20260905150105 75 355 1.7 5.2 0.00 0.03 0.00 96 1016.1
20260905145556 75 320 0.9 8.7 0.00 0.03 0.00 97 1016.1
20260905145056 74 0 1.7 8.7 0.00 0.03 0.00 97 1016.1
20260905144601 74 360 0.9 7.0 0.00 0.03 0.00 98 1016.0
20260905144055 74 360 0.9 7.0 0.00 0.03 0.00 98 1016.0
20260905143558 74 333 1.7 5.2 0.00 0.03 0.00 98 1016.1
20260905143101 74 331 0.9 4.3 0.00 0.03 0.00 98 1016.0
20260905142556 74 298 1.7 4.3 0.00 0.03 0.00 98 1015.9
20260905142056 74 306 1.7 4.3 0.00 0.03 0.00 98 1015.9
20260905141602 74 325 0.0 3.5 0.00 0.03 0.00 99 1016.0
20260905141056 74 345 0.0 4.3 0.00 0.03 0.00 99 1016.1
20260905140556 73 355 0.9 4.3 0.00 0.03 0.00 99 1016.0
20260905140105 73 298 0.9 4.3 0.00 0.03 0.00 99 1016.0
20260905135556 73 0 0.9 4.3 0.00 0.03 0.00 99 1016.0
20260905135056 73 0 0.9 4.3 0.00 0.03 0.00 99 1015.8
20260905134605 73 319 1.7 4.3 0.00 0.03 0.00 99 1015.8
20260905134056 73 18 0.0 5.2 0.00 0.03 0.00 99 1015.7
20260905133556 73 11 0.0 5.2 0.00 0.03 0.00 99 1015.8
20260905133100 72 19 0.9 7.8 0.00 0.03 0.00 99 1015.8
20260905132556 72 0 1.7 7.8 0.00 0.03 0.00 99 1015.9
20260905132056 72 18 0.0 4.3 0.00 0.03 0.00 99 1015.8
20260905131608 72 292 0.0 7.0 0.00 0.03 0.00 99 1016.0
20260905131056 72 296 0.9 7.0 0.00 0.03 0.00 99 1016.1
20260905130556 72 299 0.9 7.0 0.00 0.03 0.00 99 1016.2
20260905130106 72 0 0.0 5.2 0.00 0.03 0.00 99 1016.1
20260905125555 72 0 0.9 7.0 0.00 0.03 0.00 99 1015.8
20260905125056 72 0 0.0 7.0 0.00 0.03 0.00 99 1015.5
20260905124601 72 338 0.9 7.0 0.00 0.03 0.00 99 1015.4
20260905124051 73 284 0.0 4.3 0.00 0.03 0.00 99 1015.3
20260905123552 73 0 0.0 5.2 0.00 0.03 0.00 99 1015.3
20260905123109 72 0 0.0 6.1 0.00 0.03 0.00 99 1015.1
20260905122552 72 0 0.9 7.0 0.00 0.03 0.00 99 1014.9
20260905122051 73 9 0.9 7.0 0.00 0.03 0.00 99 1015.0
20260905121602 73 0 0.0 7.0 0.00 0.03 0.00 99 1014.8
20260905121055 73 0 0.0 3.5 0.00 0.03 0.00 99 1014.8
20260905120552 73 0 0.0 0.0 0.00 0.03 0.00 99 1014.7
20260905120111 72 0 0.0 0.0 0.00 0.03 0.00 99 1014.7
20260905115552 72 0 0.0 0.0 0.00 0.03 0.00 99 1014.5
20260905115052 72 0 0.0 0.0 0.00 0.03 0.00 99 1014.5
20260905114612 72 0 0.0 0.0 0.00 0.03 0.00 99 1014.4
20260905114052 72 0 0.0 0.0 0.00 0.03 0.00 99 1014.4